Regional Weather Roundup
Issued by NWS

Home | Current Version | Previous Version | Text Only | Print | Product List | Glossary Off
Versions: 1 2 3 4 5 6 7 8 9 10 11 12 13 14 15 16 17 18 19 20 21 22 23 24 25 26 27

000
ASUS45 KCYS 181110
RWRWY

WYOMING REGIONAL WEATHER ROUNDUP
NATIONAL WEATHER SERVICE CHEYENNE WY
500 AM MDT MON SEP 18 2017

NOTE:  "FAIR" INDICATES FEW OR NO CLOUDS BELOW 12,000 FEET
WITH NO SIGNIFICANT WEATHER AND/OR OBSTRUCTIONS TO VISIBILITY.

WYZ001-181200-
YELLOWSTONE NATIONAL PARK

CITY           SKY/WX    TMP DP  RH WIND       PRES   REMARKS
LK YELLOWSTONE   N/A     28  28 100 CALM      30.07S
W YELLOWSTONE  NOT AVBL

$$
WYZ002>013-054>058-071-098>099-181200-
NORTHERN WYOMING

CITY           SKY/WX    TMP DP  RH WIND       PRES   REMARKS
JACKSON        FAIR      29  27  92 N8        30.05F WCI  21
CODY           FAIR      43  32  65 S7        29.93F
GREYBULL       FAIR      41  40  96 E3        29.90F
WORLAND        FAIR      39  38  96 CALM      29.91F
SHERIDAN       FAIR      37  32  82 S3        29.88F
BUFFALO        FAIR      45  29  53 E3        29.93F
GILLETTE       FAIR      42  40  92 CALM      29.93R
HULETT         FAIR      37  32  81 CALM      29.93F
NEWCASTLE      FAIR      41  36  81 W6        29.94F

$$
WYZ014>020-022>026-101>103-181200-
CENTRAL WYOMING

CITY           SKY/WX    TMP DP  RH WIND       PRES   REMARKS
BIG PINEY      FAIR      30  26  85 E3        30.10F
PINEDALE       FAIR      28  28 100 W7        30.11F WCI  21
DUBOIS         FAIR      37  27  65 W12G18    30.02F WCI  30
LANDER           N/A    N/A N/A N/A MISG      29.98F
RIVERTON       FAIR      43  36  76 NW5       29.99F
CASPER         FAIR      46  33  60 SW8       30.00R
DOUGLAS        FAIR      37  31  78 CALM      30.00R

$$
WYZ021-027>030-104>119-181200-
SOUTHERN WYOMING

CITY           SKY/WX    TMP DP  RH WIND       PRES   REMARKS
EVANSTON       FAIR      46  32  58 S7        30.08F
KEMMERER         N/A     34  30  86 N9        30.10S WCI  26
FORT BRIDGER   FAIR      43  31  61 W8        30.11F
ROCK SPRINGS   FAIR      46  31  55 S6        30.09F
DIXON          FAIR      38  34  84 CALM      30.16S
RAWLINS        MOCLDY    43  33  68 SW7       30.11S
SARATOGA       FAIR      37  32  81 SE6       30.14S WCI  33
LARAMIE        FAIR      40  32  73 S7        30.13S
CHEYENNE       FAIR      46  35  65 SW9       30.09S
TORRINGTON     FAIR      44  44 100 E5        29.97F
PINE BLUFFS    FAIR      45  45 100 MISG      30.06S

$$




USA.gov is the U.S. government's official web portal to all federal, state and local government web resources and services.